Regional Weather Roundup
Issued by NWS Charleston, WV

Home | Current Version | Previous Version | Graphics & Text | Print | Product List | Glossary On
Versions: 1 2 3 4 5 6 7 8 9 10 11 12 13 14 15 16 17 18 19 20 21 22 23 24 25 26 27 28 29 30 31 32 33 34 35 36 37 38 39 40 41 42 43 44 45 46 47 48 49 50
000
ASUS41 KRLX 292210
RWRRLX
West Virginia Regional Weather Roundup
National Weather Service Charleston WV
600 PM EDT FRI MAY 29 2015

Note: "fair" indicates few or no clouds below 12,000 feet with no
significant weather and/or obstructions to visibility.

WVZ003-292300-
Northern Panhandle of West Virginia

CITY           SKY/WX    TMP DP  RH WIND       PRES   REMARKS
WHEELING       MOSUNNY   82  63  52 SW14      30.12F
$$

WVZ009-292300-
Northwest West Virginia

CITY           SKY/WX    TMP DP  RH WIND       PRES   REMARKS
PARKERSBURG    MOSUNNY   80  67  64 S5        30.15S
$$

WVZ006-292300-
Western West Virginia

CITY           SKY/WX    TMP DP  RH WIND       PRES   REMARKS
HUNTINGTON     MOSUNNY   81  65  58 CALM      30.11F THUNDER
$$

WVZ015-292300-
West Central West Virginia

CITY           SKY/WX    TMP DP  RH WIND       PRES   REMARKS
CHARLESTON     PTSUNNY   85  63  47 NE5       30.12F THUNDER
$$

WVZ022-031-292300-
North Central West Virginia

CITY           SKY/WX    TMP DP  RH WIND       PRES   REMARKS
CLARKSBURG     MOSUNNY   77  68  73 SE6       30.16F
MORGANTOWN     PTSUNNY   76  63  64 S8        30.17F
$$

WVZ025-035-042-045-292300-
Southern West Virginia

CITY           SKY/WX    TMP DP  RH WIND       PRES   REMARKS
BECKLEY        RAIN      65  62  90 CALM      30.25F FOG
LOGAN            N/A     75  61  60 CALM      30.15R
BLUEFIELD      CLOUDY    72  65  78 CALM      30.26F
LEWISBURG      PTSUNNY   79  59  51 CALM      30.22F
$$

WVZ047-292300-
Northern Mountains of West Virginia

CITY           SKY/WX    TMP DP  RH WIND       PRES   REMARKS
ELKINS         PTSUNNY   75  60  59 SE6       30.22F
$$

WVZ052-292300-
Eastern Panhandle of West Virginia

CITY           SKY/WX    TMP DP  RH WIND       PRES   REMARKS
MARTINSBURG    MOSUNNY   83  66  56 S9        30.18F
PETERSBURG     CLOUDY    77  66  69 SE6       30.18F
$$


USA.gov is the U.S. government's official web portal to all federal, state and local government web resources and services.